Weather History for CWVN - May, 2013

Change the Weather History Date:

Monday, May 27, 2013

  Actual Average Record
Temperature  
Mean Temperature 58 °F -  
Max Temperature 67 °F - - ()
Min Temperature 49 °F - - ()
Degree Days  
Heating Degree Days 6    
Growing Degree Days 8 (Base 50)    
Moisture  
Dew Point 50 °F    
Average Humidity 78    
Maximum Humidity 95    
Minimum Humidity 43    
Precipitation  
Precipitation 0.20 in - - ()
Sea Level Pressure  
Sea Level Pressure 29.78 in    
Wind  
Wind Speed 7 mph ()    
Max Wind Speed 18 mph    
Max Gust Speed 21 mph    
T = Trace of Precipitation, MM = Missing Value Source: Averaged Metar Reports

Daily Weather History Graph

Daily Weather History Graph

Search for Another Location

Airport or City:

Trip Planner

Search our weather history database for the weather conditions in past years. The results will help you decide how hot, cold, wet, or windy it might be!

Date:

Astronomy

May. 27, 2013 Rise Set
Actual Time 5:14 AM CST 9:01 PM CST
Civil Twilight 4:33 AM CST 9:42 PM CST
Nautical Twilight 3:38 AM CST 10:38 PM CST
Astronomical Twilight 2:15 AM CST 12:03 AM CST
Moon 11:35 PM CST (5/27) 7:59 AM CST (5/27)
Length of Visible Light 17h 08m
Length of Day
15h 47m
Waning Gibbous, 90% of the Moon is Illuminated
May 27
Waning Gibbous
May 31
Last Quarter
Jun 8
New
Jun 16
First Quarter
Jun 23
Full

Hourly Weather History & Observations

Time (CST) Temp. Dew Point Humidity Pressure Visibility Wind Dir Wind Speed Gust Speed Precip Events Conditions
12:00 AM 54 °F 50 °F 82% 29.84 in - ESE 10.4 mph - -  
12:00 AM 53.6 °F 50.0 °F 88% 29.84 in - ESE 10.4 mph - N/A   Unknown
1:00 AM 54.0 °F 48.4 °F 81% 29.84 in - East 18.4 mph - N/A   Unknown
2:00 AM 54.5 °F 48.4 °F 80% 29.83 in - East 15.0 mph 20.7 mph N/A   Unknown
3:00 AM 53 °F 48 °F 77% 29.82 in - NE 6.9 mph - -  
3:00 AM 53.2 °F 47.8 °F 82% 29.82 in - NE 6.9 mph - N/A   Unknown
4:00 AM 51.3 °F 47.7 °F 87% 29.82 in - NW 2.3 mph - N/A   Unknown
5:00 AM 50.5 °F 48.0 °F 91% 29.81 in - North 5.8 mph - N/A   Unknown
6:00 AM 52 °F 49 °F 88% 29.82 in - WSW 2.3 mph - -  
6:00 AM 52.0 °F 49.5 °F 91% 29.82 in - WSW 2.3 mph - N/A   Unknown
7:00 AM 53.8 °F 49.3 °F 85% 29.84 in - ENE 1.2 mph - N/A   Unknown
8:00 AM 56.1 °F 50.4 °F 81% 29.83 in - ENE 5.8 mph - N/A   Unknown
9:00 AM 58 °F 52 °F 73% 29.82 in - East 5.8 mph - -  
9:00 AM 58.1 °F 51.6 °F 79% 29.82 in - East 5.8 mph - N/A   Unknown
10:00 AM 61.2 °F 50.7 °F 69% 29.80 in - East 4.6 mph - N/A   Unknown
11:00 AM 61.7 °F 50.5 °F 67% 29.79 in - ESE 4.6 mph - N/A   Unknown
12:00 PM 62 °F 53 °F 63% 29.78 in - ESE 8.1 mph - -  
12:00 PM 62.4 °F 52.5 °F 70% 29.78 in - ESE 8.1 mph - N/A   Unknown
1:00 PM 64.8 °F 51.3 °F 62% 29.76 in - SE 6.9 mph - N/A   Unknown
2:00 PM 64.9 °F 50.0 °F 58% 29.74 in - South 5.8 mph - N/A   Unknown
3:00 PM 67 °F 50 °F 43% 29.73 in - South 5.8 mph - -  
3:00 PM 67.1 °F 49.6 °F 53% 29.73 in - South 5.8 mph - N/A   Unknown
4:00 PM 66.0 °F 52.0 °F 60% 29.71 in - SW 9.2 mph - N/A   Unknown
5:00 PM 61.2 °F 50.7 °F 69% 29.73 in - North 12.7 mph 19.6 mph N/A   Unknown
6:00 PM 56 °F 54 °F 90% 29.73 in - NE 12.7 mph - -  
6:00 PM 56.3 °F 53.8 °F 91% 29.73 in - NE 12.7 mph - 0.18 in   Unknown
7:00 PM 55.0 °F 50.0 °F 83% 29.71 in - ENE 9.2 mph - N/A   Unknown
8:00 PM 55.6 °F 50.9 °F 84% 29.72 in - NNE 5.8 mph - N/A   Unknown
9:00 PM 55 °F 51 °F 84% 29.71 in - NNW 5.8 mph - -  
9:00 PM 55.0 °F 51.4 °F 88% 29.71 in - NNW 5.8 mph - N/A   Unknown
10:00 PM 51.6 °F 50.0 °F 94% 29.72 in - North 3.5 mph - N/A   Unknown
11:00 PM 49.3 °F 47.8 °F 95% 29.73 in - WNW 1.2 mph - N/A   Unknown